TimeCST,TemperatureF,Dew PointF,Humidity,Sea Level PressureIn,VisibilityMPH,Wind Direction,Wind SpeedMPH,Gust SpeedMPH,PrecipitationIn,Events,Conditions,WindDirDegrees,DateUTC
12:52 AM,25.0,21.0,85,29.80,-9999.0,Calm,Calm,-,N/A,,Unknown,0,2013-01-28 06:52:00
1:52 AM,26.1,21.9,84,29.82,-9999.0,WNW,8.1,-,N/A,,Unknown,290,2013-01-28 07:52:00
2:52 AM,25.0,21.0,85,29.83,-9999.0,WNW,5.8,-,N/A,,Unknown,290,2013-01-28 08:52:00
3:52 AM,25.0,21.0,85,29.83,-9999.0,SSW,3.5,-,N/A,,Unknown,200,2013-01-28 09:52:00
4:52 AM,24.1,21.0,88,29.83,-9999.0,Variable,3.5,-,N/A,,Unknown,0,2013-01-28 10:52:00
5:52 AM,23.0,19.0,85,29.82,-9999.0,WNW,5.8,-,N/A,,Unknown,290,2013-01-28 11:52:00
6:52 AM,19.9,17.1,89,29.86,-9999.0,WSW,3.5,-,N/A,,Unknown,240,2013-01-28 12:52:00
7:52 AM,23.0,19.0,85,29.86,-9999.0,WNW,5.8,-,N/A,,Unknown,290,2013-01-28 13:52:00
8:52 AM,23.0,19.9,88,29.88,-9999.0,West,5.8,-,N/A,,Unknown,270,2013-01-28 14:52:00
9:52 AM,26.1,21.9,84,29.87,-9999.0,NW,4.6,-,N/A,,Unknown,320,2013-01-28 15:52:00
10:52 AM,28.0,24.1,85,29.85,-9999.0,North,8.1,-,N/A,,Unknown,350,2013-01-28 16:52:00
11:52 AM,30.9,24.1,76,29.84,-9999.0,North,4.6,-,N/A,,Unknown,350,2013-01-28 17:52:00
12:52 PM,30.9,24.1,76,29.83,-9999.0,Calm,Calm,-,N/A,,Unknown,0,2013-01-28 18:52:00
1:52 PM,32.0,25.0,75,29.81,-9999.0,NW,6.9,-,N/A,,Unknown,310,2013-01-28 19:52:00
2:52 PM,30.9,26.1,82,29.79,-9999.0,North,5.8,-,N/A,,Unknown,10,2013-01-28 20:52:00
3:52 PM,30.9,27.0,85,29.78,-9999.0,North,9.2,-,0.02,,Unknown,360,2013-01-28 21:52:00
4:52 PM,30.9,27.0,85,29.76,-9999.0,North,12.7,-,N/A,,Unknown,360,2013-01-28 22:52:00
5:52 PM,30.0,27.0,88,29.76,-9999.0,North,15.0,18.4,N/A,,Unknown,350,2013-01-28 23:52:00
6:52 PM,30.0,27.0,88,29.78,-9999.0,North,11.5,-,N/A,,Unknown,360,2013-01-29 00:52:00
7:52 PM,30.9,28.9,92,29.78,-9999.0,North,11.5,-,N/A,,Unknown,350,2013-01-29 01:52:00
8:52 PM,30.9,28.0,89,29.77,-9999.0,North,12.7,-,0.03,,Unknown,360,2013-01-29 02:52:00
9:52 PM,30.0,28.0,92,29.77,-9999.0,NNW,10.4,-,0.01,,Unknown,330,2013-01-29 03:52:00
10:52 PM,30.9,28.9,92,29.75,-9999.0,NNW,8.1,-,0.05,,Unknown,340,2013-01-29 04:52:00
11:52 PM,30.9,28.9,92,29.76,-9999.0,NW,5.8,-,0.02,,Unknown,320,2013-01-29 05:52:00